Location: Newark
(45.0500°N, 41.9667°E)
Time: 18:16:54
(UTC+00:00)

Starlink (trailer) - Pass Details

Date: 28 July 2019
Orbit: 549 x 551 km, 53.0° (Epoch: 23 August)

Event Time Altitude Azimuth Distance (km) Brightness Sun altitude
Rises 22:20:47 0° 287° (WNW) 2,720 7.2 -24.5°
Reaches altitude 10° 22:23:17 10° 300° (WNW) 1,826 6.4 -24.4°
Maximum altitude 22:26:50 27° 359° (N) 1,090 5.7 -24.2°
Drops below altitude 10° 22:30:23 10° 58° (ENE) 1,828 6.9 -24.0°
Sets 22:32:54 0° 71° (ENE) 2,722 7.7 -23.9°
